Wind_Speed
6 8 14 15 14 13 12 10 9 9 6 5 6 8 7 8 8 7 8 10 9 9 10 9 10 13 14 13 14 12 13 11 12 14 11 8 11 14 13 11 9 10 9
9 10 13 14 13 12 10 10 9 7 6 5 6 7 7 8 8 7 9 10 11 12 13 13 11 13 14 15 15 16 14 13 12 11 10 9 7 5 11 10 11 9 9
10 10 11 12 12 11 9 8 7 7 6 6 5 5 6 7 7 9 11 12 13 13 13 15 14 16 17 17 16 17 18 16 15 12 11 14 16 15 14 14 13 12 10
10 9 12 12 12 9 6 6 7 8 8 8 9 10 11 12 12 12 14 15 17 16 17 17 16 16 16 20 20 18 19 19 18 19 13 13 15 17 15 15 14 12 10
11 11 12 13 12 8 5 5 3 8 9 10 12 14 15 17 16 16 18 19 21 20 19 20 19 18 18 18 19 20 22 21 19 19 22 17 13 15 15 16 16 14 13
12 13 12 10 8 5 3 1 1 2 3 8 10 13 14 14 15 16 18 19 21 22 22 21 21 20 20 21 21 19 22 21 23 19 20 19 17 18 15 15 14 13 14
12 11 9 8 6 5 8 8 8 8 10 9 8 11 13 15 20 18 19 20 20 19 22 25 26 26 24 23 22 21 22 24 25 22 22 20 19 17 17 18 17 19 18
12 11 9 7 7 8 9 11 14 15 16 17 17 16 14 14 20 20 23 26 26 23 22 22 28 27 26 27 26 26 24 25 25 24 24 22 22 22 21 20 22 23 22
13 12 10 10 9 11 14 16 18 20 22 21 20 23 25 24 24 25 27 30 31 30 29 27 27 30 29 28 29 29 28 26 26 26 25 24 26 26 25 25 24 25 27
15 14 16 15 15 15 17 18 20 22 24 25 27 28 30 31 32 34 35 34 34 34 33 31 31 30 31 33 34 33 33 29 28 28 27 29 30 32 29 30 29 29 30
23 22 21 19 19 18 19 22 24 25 25 26 28 31 33 37 38 39 39 36 35 34 32 30 31 32 31 32 34 33 33 31 32 33 33 32 32 31 28 29 31 33 33
27 24 23 21 20 20 21 22 22 23 25 27 30 32 32 31 31 30 29 30 30 34 34 32 33 33 33 33 34 35 33 33 31 32 33 32 30 28 29 32 34 38 37
25 24 21 21 20 21 22 22 23 25 27 27 27 26 26 29 31 32 30 30 31 31 32 35 33 33 33 35 34 35 35 32 32 31 29 31 32 32 32 32 33 38 40
25 20 20 19 20 23 23 22 24 26 25 25 24 24 25 26 27 27 27 28 29 33 33 35 37 37 35 35 34 36 36 36 35 34 33 32 33 33 33 33 29 27 33
23 20 20 22 21 23 22 22 24 24 23 23 24 25 24 26 29 30 30 29 30 33 33 32 34 37 39 35 36 36 37 39 39 37 36 36 35 35 35 33 32 28 24
23 21 21 21 22 22 22 22 20 21 21 21 21 22 23 24 27 29 28 27 25 25 25 26 28 31 33 37 38 37 35 34 36 38 37 36 35 33 34 34 34 33 34
22 21 21 21 21 21 20 18 17 18 18 19 17 16 21 25 21 19 18 12 14 16 15 15 17 19 28 26 27 27 26 29 33 36 37 35 34 33 33 33 33 32 34
21 22 20 21 22 19 16 15 13 14 16 12 10 11 14 22 24 24 16 10 8 9 8 12 13 16 19 28 23 23 24 23 26 27 33 32 31 34 35 33 33 35 36
20 20 20 22 22 15 13 12 11 13 7 6 7 7 16 19 24 19 17 19 14 8 9 7 8 11 11 14 18 20 21 22 24 25 26 29 27 27 27 29 33 31 30
19 19 20 19 13 11 10 11 8 2 3 5 7 9 12 15 17 15 17 17 15 17 13 11 10 8 8 12 11 18 16 18 18 19 19 21 22 22 21 24 25 28 25
17 18 18 14 11 9 9 7 3 4 5 2 4 8 10 12 12 13 10 10 11 13 14 15 12 15 12 10 9 6 9 17 15 23 25 22 21 23 26 25 22 18 5
17 15 11 7 7 6 7 3 5 6 4 3 5 7 9 9 8 9 11 10 8 7 7 10 10 12 7 7 8 8 7 7 8 9 8 7 4 7 6 6 9 4 1
16 14 12 5 4 3 1 3 5 4 3 4 6 5 6 7 7 8 9 10 10 11 10 9 8 10 11 11 11 10 8 7 5 5 3 5 6 3 1 1 3 4 5
17 15 14 11 7 7 7 6 8 6 6 7 8 8 8 7 7 7 8 9 9 8 7 8 9 9 9 9 9 9 9 9 7 6 4 4 3 2 4 6 8 10 11
17 23 18 12 12 6 1 2 4 4 7 9 8 7 6 7 5 5 8 10 8 7 6 6 7 8 8 9 9 9 8 7 6 6 6 5 5 4 4 5 6 8 8
19 18 13 10 8 9 13 9 5 2 2 4 7 4 6 7 6 5 5 6 9 11 11 9 5 4 3 4 5 6 7 8 7 6 5 5 4 5 6 8 9 9 11
Wind_Direction
191 201 199 200 203 204 202 205 209 222 228 205 211 216 225 238 261 267 252 255 248 248 253 255 255 244 252 235 245 258 261 279 257 249 263 263 253 285 245 257 252 257 266
158 165 170 177 181 179 182 188 199 210 223 210 196 206 213 232 254 255 252 260 259 250 253 262 251 243 242 243 244 250 264 272 273 261 244 260 249 292 230 251 255 259 264
152 149 155 158 158 160 166 175 189 205 217 232 232 229 232 231 241 255 261 260 261 264 261 255 252 247 241 244 245 248 258 258 250 247 250 255 255 260 261 256 258 262 264
176 168 167 163 155 153 167 195 207 211 222 229 240 242 250 256 259 261 263 259 252 253 255 255 253 252 247 242 246 248 250 254 254 244 252 265 263 261 252 249 252 259 268
172 161 161 159 151 137 123 86 209 232 239 246 250 251 255 260 266 271 270 264 258 253 250 252 251 250 250 246 247 248 254 251 250 255 250 252 241 252 260 243 248 258 268
172 160 160 158 152 148 161 216 335 354 304 260 264 257 256 260 267 275 276 273 270 262 255 251 246 250 247 246 247 249 250 248 250 252 254 251 243 249 253 256 256 268 275
172 173 178 190 202 228 242 260 276 287 292 282 281 277 267 269 266 267 268 271 272 270 263 257 255 253 253 250 248 246 247 247 248 251 253 260 256 255 255 253 258 261 259
185 192 199 210 230 243 259 267 271 278 286 285 275 269 273 268 268 266 270 274 273 274 272 265 255 253 252 251 252 249 242 243 245 247 251 253 256 253 254 256 258 262 265
208 215 225 238 257 270 272 273 274 280 277 276 281 281 285 282 278 275 270 270 272 269 267 265 260 251 248 251 250 249 247 245 245 244 249 250 251 256 257 257 259 262 264
227 234 242 254 262 272 275 274 276 274 276 278 279 282 283 285 284 282 279 275 274 273 266 259 255 252 246 245 249 251 251 247 247 245 252 252 251 259 262 268 266 265 265
239 243 248 257 259 267 271 277 278 281 280 280 283 286 288 288 286 284 281 278 273 268 267 257 254 250 249 246 246 248 253 251 249 249 254 252 250 255 259 264 267 265 261
239 244 250 259 266 276 283 285 284 282 285 288 290 291 290 288 287 283 281 280 276 271 265 259 250 249 246 246 246 247 249 248 253 254 255 254 250 258 261 261 266 270 263
236 235 242 259 273 279 282 283 282 284 287 288 291 290 289 289 288 287 283 281 275 270 267 260 256 251 247 244 245 247 249 249 250 252 252 252 252 257 257 263 276 272 261
228 234 247 261 270 276 281 283 283 286 287 291 293 294 295 293 290 287 285 281 278 270 270 260 253 250 248 250 249 245 247 248 250 250 251 253 251 254 258 261 273 282 276
235 242 250 258 270 276 280 282 283 285 293 298 299 300 302 300 299 294 288 280 285 269 264 258 253 251 249 248 248 248 250 248 247 249 250 253 256 255 258 257 264 264 265
233 242 251 264 274 278 280 283 286 291 297 298 302 308 313 312 307 308 296 286 281 270 262 260 258 253 251 245 249 250 249 253 249 249 251 253 255 257 260 256 261 266 269
231 241 256 265 276 280 280 282 289 298 297 299 309 319 331 336 338 337 343 309 290 273 266 270 267 258 243 256 258 255 257 252 250 248 251 254 257 259 259 256 261 267 265
234 249 258 271 277 273 283 299 306 304 299 300 318 341 7 356 354 348 350 0 345 332 291 278 288 278 264 246 254 253 256 256 260 252 252 254 256 261 257 259 259 264 266
243 254 267 275 277 282 297 302 304 299 299 334 330 322 341 355 17 16 21 20 8 353 330 282 305 283 278 257 256 255 255 257 257 254 252 255 260 258 261 261 256 258 266
247 263 273 269 267 275 289 296 305 276 322 328 322 333 349 12 22 19 31 28 20 31 32 18 3 346 285 258 260 264 258 263 262 254 252 256 255 256 261 263 263 267 265
248 260 258 255 257 259 274 269 305 313 295 312 331 357 1 3 14 10 353 20 40 32 28 37 34 42 38 23 1 341 281 273 273 262 268 267 260 261 260 265 260 252 279
247 247 239 221 238 243 243 250 270 283 304 329 352 352 2 9 8 12 360 22 24 27 30 9 20 37 42 30 37 62 81 87 81 84 95 78 88 85 115 125 167 184 135
230 219 205 150 81 183 205 26 324 279 332 337 332 324 339 341 355 4 6 14 20 13 13 14 28 35 36 37 41 46 53 71 109 124 81 48 50 115 125 126 217 210 193
217 199 182 143 93 47 32 65 21 12 33 3 345 351 1 357 358 9 19 18 20 12 9 12 20 26 28 30 32 32 36 36 38 30 12 345 348 331 274 259 248 247 251
208 194 190 155 154 156 1 353 56 6 4 0 353 5 13 9 34 36 40 32 25 22 13 14 19 30 26 23 27 26 28 27 22 13 356 345 338 332 318 294 280 274 274
204 201 175 214 238 212 220 227 221 243 304 327 336 334 317 320 336 349 5 11 359 356 1 5 353 348 6 13 22 20 12 5 356 346 335 333 332 322 308 295 287 281 276
Height
3170 3171 3173 3176 3178 3181 3183 3185 3187 3189 3190 3192 3193 3193 3194 3194 3194 3196 3195 3195 3196 3197 3198 3198 3199 3197 3198 3199 3199 3198 3199 3199 3199 3200 3199 3199 3198 3198 3197 3199 3199 3198 3198
3170 3170 3172 3174 3177 3179 3181 3183 3184 3185 3187 3188 3190 3191 3192 3192 3192 3192 3192 3193 3192 3193 3193 3194 3194 3194 3195 3195 3196 3196 3195 3196 3196 3196 3195 3195 3196 3196 3196 3197 3196 3195 3195
3170 3171 3172 3174 3176 3178 3180 3181 3183 3183 3184 3186 3186 3188 3189 3189 3189 3189 3188 3188 3188 3189 3188 3189 3189 3189 3190 3192 3192 3192 3192 3193 3193 3192 3192 3193 3193 3193 3194 3194 3193 3193 3192
3171 3171 3173 3175 3176 3178 3180 3180 3181 3182 3183 3183 3184 3184 3185 3185 3185 3185 3184 3183 3183 3183 3183 3184 3184 3185 3185 3186 3186 3187 3187 3188 3188 3189 3187 3189 3189 3189 3189 3189 3190 3189 3189
3170 3171 3173 3174 3176 3177 3178 3179 3178 3179 3180 3179 3180 3180 3181 3181 3181 3180 3179 3178 3176 3177 3177 3178 3178 3179 3179 3179 3180 3181 3181 3181 3182 3182 3183 3184 3184 3184 3185 3185 3184 3185 3185
3169 3170 3171 3173 3174 3175 3175 3175 3175 3175 3176 3176 3176 3175 3176 3176 3176 3175 3173 3172 3171 3171 3171 3171 3172 3172 3173 3173 3174 3175 3175 3178 3176 3176 3176 3177 3180 3181 3181 3180 3180 3180 3181
3168 3168 3169 3170 3170 3170 3171 3171 3171 3171 3172 3172 3171 3170 3170 3170 3170 3169 3167 3166 3166 3165 3164 3164 3164 3165 3166 3167 3167 3167 3168 3168 3170 3170 3170 3171 3173 3175 3175 3174 3174 3175 3175
3165 3166 3167 3167 3167 3166 3166 3166 3166 3166 3165 3164 3164 3163 3163 3164 3162 3162 3161 3158 3158 3158 3158 3158 3157 3157 3158 3158 3159 3159 3161 3162 3163 3164 3165 3165 3165 3166 3167 3169 3169 3168 3169
3161 3162 3161 3161 3162 3162 3160 3161 3161 3160 3159 3157 3157 3155 3154 3155 3154 3153 3151 3149 3148 3148 3148 3148 3148 3148 3150 3150 3150 3151 3153 3155 3155 3157 3158 3159 3159 3159 3160 3161 3162 3162 3161
3157 3158 3158 3157 3157 3156 3155 3155 3154 3154 3152 3151 3150 3148 3146 3144 3143 3142 3140 3138 3136 3136 3137 3138 3138 3138 3140 3141 3142 3142 3143 3147 3149 3150 3150 3151 3151 3152 3153 3153 3154 3154 3154
3153 3154 3155 3155 3154 3151 3150 3148 3147 3146 3145 3143 3142 3139 3136 3132 3131 3129 3127 3126 3124 3124 3125 3127 3128 3128 3129 3131 3132 3133 3135 3138 3139 3140 3141 3142 3142 3143 3144 3143 3145 3145 3146
3146 3148 3151 3152 3150 3146 3142 3141 3140 3139 3137 3135 3133 3130 3126 3123 3120 3119 3118 3116 3114 3112 3114 3116 3117 3117 3119 3121 3122 3124 3125 3127 3129 3130 3131 3133 3134 3135 3136 3136 3136 3135 3135
3141 3141 3143 3145 3146 3143 3139 3134 3133 3131 3130 3128 3125 3122 3119 3115 3111 3109 3108 3106 3104 3103 3102 3103 3105 3107 3108 3110 3112 3114 3115 3117 3118 3119 3121 3124 3125 3126 3125 3126 3126 3124 3122
3134 3135 3138 3139 3138 3136 3132 3128 3125 3124 3122 3120 3117 3115 3112 3108 3104 3101 3099 3097 3094 3092 3091 3091 3093 3096 3098 3099 3102 3104 3106 3107 3108 3109 3111 3113 3114 3115 3116 3118 3117 3115 3109
3131 3130 3132 3134 3132 3130 3126 3122 3118 3116 3115 3113 3110 3108 3105 3100 3095 3092 3088 3085 3082 3079 3078 3080 3081 3083 3085 3088 3090 3092 3094 3096 3098 3099 3101 3103 3104 3105 3107 3108 3109 3108 3106
3123 3126 3129 3128 3126 3124 3120 3115 3112 3110 3109 3107 3105 3102 3098 3093 3087 3081 3075 3072 3069 3067 3068 3070 3071 3072 3074 3076 3079 3081 3084 3085 3088 3089 3091 3092 3094 3095 3097 3098 3099 3099 3098
3117 3121 3122 3122 3119 3118 3113 3109 3107 3106 3104 3102 3100 3098 3093 3087 3080 3076 3070 3065 3063 3062 3063 3063 3064 3064 3067 3068 3070 3072 3075 3075 3077 3079 3081 3083 3084 3086 3087 3089 3090 3089 3088
3111 3116 3115 3114 3112 3111 3106 3103 3102 3101 3100 3099 3097 3094 3089 3084 3077 3071 3068 3063 3061 3060 3059 3060 3060 3060 3060 3061 3063 3064 3067 3068 3069 3070 3072 3074 3075 3076 3077 3079 3080 3080 3080
3106 3108 3107 3107 3104 3102 3098 3098 3099 3098 3096 3095 3093 3091 3088 3084 3078 3074 3069 3065 3062 3059 3057 3056 3056 3056 3055 3056 3057 3058 3060 3061 3062 3063 3064 3065 3066 3067 3068 3068 3069 3070 3070
3098 3098 3099 3099 3097 3096 3093 3095 3096 3095 3094 3093 3092 3089 3087 3083 3079 3077 3072 3068 3066 3062 3058 3056 3055 3054 3052 3052 3054 3054 3054 3055 3056 3056 3057 3057 3058 3059 3059 3060 3060 3060 3059
3090 3091 3094 3093 3093 3091 3091 3093 3093 3093 3092 3091 3090 3088 3085 3082 3079 3078 3074 3070 3068 3066 3063 3060 3059 3056 3054 3053 3052 3050 3050 3051 3050 3051 3051 3050 3050 3051 3052 3053 3053 3053 3054
3083 3086 3088 3089 3091 3088 3089 3090 3091 3090 3090 3089 3088 3086 3084 3082 3080 3078 3076 3072 3070 3067 3066 3064 3062 3059 3057 3055 3054 3053 3052 3052 3051 3050 3050 3049 3049 3049 3049 3050 3052 3053 3055
3078 3084 3085 3088 3088 3086 3088 3088 3088 3088 3087 3087 3086 3085 3083 3082 3080 3078 3077 3073 3071 3069 3067 3065 3063 3061 3059 3058 3057 3057 3055 3054 3054 3053 3052 3052 3051 3052 3052 3053 3055 3055 3055
3076 3080 3083 3085 3085 3086 3088 3088 3087 3087 3086 3086 3085 3083 3082 3080 3079 3079 3076 3074 3072 3071 3070 3067 3065 3063 3062 3060 3059 3058 3057 3056 3055 3055 3054 3053 3052 3053 3053 3053 3054 3054 3055
3074 3077 3078 3080 3081 3084 3086 3086 3086 3086 3085 3084 3083 3082 3081 3079 3078 3077 3076 3074 3074 3072 3071 3069 3066 3064 3063 3061 3059 3059 3058 3057 3056 3055 3055 3054 3053 3053 3052 3053 3053 3053 3052
3070 3070 3071 3077 3077 3080 3081 3084 3084 3084 3084 3083 3081 3080 3079 3078 3077 3076 3074 3073 3073 3072 3071 3069 3068 3066 3064 3062 3061 3059 3058 3057 3056 3055 3054 3053 3051 3050 3050 3050 3050 3050 3050